Vorticity
6 7 14 9 9 8 2 3 6 4 3 4 5 13 7 8 8 3 2 10 5 4 6 0 3 1 4 5 2 35 31 28 -13 -3 3 9 9 5 12 11 -11 11 9 13
5 8 5 11 4 5 12 9 7 5 4 3 4 16 21 16 12 4 10 8 8 6 7 5 6 10 8 7 5 45 56 30 1 39 -18 8 13 7 -12 7 -2 12 15 8
2 5 4 4 7 -0 6 10 7 2 0 3 4 14 15 16 9 1 13 13 9 8 6 9 7 7 11 7 8 8 19 23 39 45 14 18 -1 19 9 -4 -1 11 -2 7
5 5 4 5 1 0 7 11 9 3 3 4 3 2 15 21 11 3 11 2 17 7 7 7 10 15 11 7 7 8 8 3 4 9 15 26 29 22 11 12 10 5 18 30
4 9 3 8 8 4 -5 6 7 5 1 5 8 4 26 15 14 4 -2 3 2 9 6 12 10 8 9 7 5 5 7 8 8 9 9 9 15 26 34 37 30 17 9 8
6 4 5 9 5 3 2 3 5 5 3 3 9 4 27 14 13 1 4 6 2 9 6 1 5 9 9 10 11 6 6 7 10 10 9 8 7 9 7 6 8 7 7 5
10 9 8 6 5 3 4 4 2 3 5 -0 8 6 9 16 14 8 7 2 9 7 12 4 5 1 4 9 6 6 10 9 8 5 6 7 11 10 10 -2 -0 8 6 5
15 12 10 10 7 8 4 4 5 8 3 4 7 8 15 23 2 25 4 4 -3 -2 1 6 0 2 4 9 -7 16 4 2 0 6 10 9 6 7 5 1 4 3 1 6
7 12 11 9 6 6 6 4 6 6 5 4 4 5 9 12 22 11 19 9 5 9 16 7 3 5 2 2 11 4 20 9 4 4 4 6 9 9 9 6 10 12 5 2
8 7 8 14 5 9 4 3 5 5 5 3 4 5 17 12 18 2 8 17 6 6 4 12 7 10 9 4 17 8 9 16 7 5 5 6 3 2 10 5 9 9 7 1
9 7 8 7 7 8 10 6 4 5 3 4 5 6 18 3 10 10 12 6 5 4 -4 3 20 1 4 5 7 12 14 5 0 5 12 -3 -2 21 9 -2 22 2 5 3
4 4 14 12 6 8 7 11 3 5 4 5 4 3 7 -0 15 11 15 20 5 -3 5 6 8 15 -1 6 6 9 8 19 13 12 7 11 1 4 -1 8 4 22 2 -5
10 7 4 10 12 9 3 4 4 3 2 4 5 4 8 6 9 5 8 8 7 2 -2 5 9 4 0 9 11 2 -5 -6 9 11 10 6 5 7 10 0 -19 12 22 -4
6 4 4 2 0 4 5 9 6 5 5 3 6 4 7 4 4 7 9 2 2 4 5 20 20 13 2 -3 -10 29 -4 14 3 16 12 8 7 7 7 10 13 3 6 3
9 12 10 10 12 13 5 9 6 5 5 2 6 7 5 5 13 1 14 -1 3 5 6 4 6 5 15 5 7 7 8 20 7 4 4 14 13 8 5 8 13 7 13 8
7 16 13 12 9 1 10 6 7 11 5 0 4 6 5 6 6 -0 2 13 10 7 19 6 -0 0 5 6 16 18 9 9 5 -5 6 4 7 8 9 7 5 8 12 9
2 9 19 13 14 17 13 1 10 6 6 7 4 7 2 5 5 3 2 3 -0 3 8 9 4 15 17 9 15 21 6 15 5 4 2 2 4 10 6 4 7 5 10 9
7 8 21 -0 20 16 7 26 17 7 10 13 9 6 6 5 3 9 4 13 5 6 9 7 20 10 6 8 12 7 7 16 13 9 3 8 7 10 9 10 11 15 10 16
16 -3 -4 -2 -15 -2 -7 9 8 24 7 24 10 4 7 9 10 9 9 1 3 3 1 3 11 10 3 6 8 -6 18 19 16 22 21 17 11 10 8 11 10 8 12 11
18 27 40 39 27 1 22 -4 -0 -13 30 11 26 19 7 11 12 8 9 8 11 7 3 -0 5 1 14 5 -3 -1 4 14 23 -1 9 10 8 4 4 13 10 9 8 13
3 6 17 17 15 24 53 25 1 -7 -4 3 9 25 25 7 12 10 8 31 6 3 6 10 19 9 10 8 2 5 5 12 14 8 3 7 8 5 2 1 8 9 10 15
8 3 1 2 12 16 5 13 26 42 21 -0 -15 16 -10 20 14 5 6 8 12 24 9 0 7 -2 4 -3 -10 9 9 6 1 7 8 9 10 1 8 5 2 6 8 8
4 2 2 1 2 10 12 6 21 22 28 34 -24 46 11 -1 -2 4 16 16 16 10 6 5 13 17 24 21 10 10 2 12 2 10 6 11 9 14 10 8 8 6 6 9
5 2 1 -3 2 6 8 3 4 3 17 30 22 -14 38 11 7 9 -6 19 13 10 7 3 12 7 3 15 5 13 11 -12 3 8 9 0 -0 6 11 16 16 11 8 6
5 7 5 5 4 7 4 14 13 6 8 26 31 40 -17 2 33 19 21 1 -9 16 13 13 12 12 14 9 7 11 0 9 6 3 11 8 20 14 -0 0 6 8 9 9
10 8 8 5 10 9 7 19 34 17 8 4 15 18 27 20 39 -6 7 8 2 12 10 11 14 8 6 13 -0 2 -3 -1 9 -5 23 -7 4 9 11 2 -0 8 12 9
Height
5718 5723 5729 5729 5728 5729 5728 5731 5732 5733 5731 5731 5732 5731 5733 5733 5730 5730 5730 5728 5725 5723 5722 5721 5720 5719 5718 5717 5714 5708 5704 5709 5715 5720 5724 5728 5730 5736 5739 5742 5744 5746 5749 5751
5709 5719 5723 5720 5720 5723 5725 5728 5731 5729 5728 5726 5728 5729 5728 5730 5726 5727 5728 5727 5724 5723 5721 5720 5720 5719 5718 5715 5713 5707 5701 5706 5713 5717 5719 5723 5727 5732 5732 5734 5738 5741 5745 5747
5704 5713 5713 5715 5716 5718 5720 5723 5724 5727 5721 5722 5722 5725 5725 5726 5722 5724 5725 5725 5723 5722 5721 5720 5720 5720 5719 5717 5715 5712 5708 5710 5713 5714 5718 5720 5723 5726 5728 5729 5733 5736 5739 5740
5693 5701 5705 5708 5711 5713 5716 5719 5719 5719 5718 5719 5718 5721 5720 5721 5719 5721 5722 5723 5722 5721 5720 5720 5719 5719 5719 5717 5716 5714 5714 5715 5718 5714 5716 5716 5716 5721 5724 5727 5727 5731 5734 5736
5689 5697 5698 5701 5708 5706 5715 5709 5713 5711 5711 5713 5716 5716 5720 5717 5717 5717 5719 5720 5721 5719 5719 5719 5720 5719 5718 5718 5717 5717 5717 5717 5717 5714 5719 5719 5717 5718 5723 5725 5726 5729 5733 5736
5679 5686 5687 5695 5698 5698 5706 5702 5706 5706 5708 5708 5713 5710 5717 5716 5715 5715 5716 5717 5718 5719 5718 5719 5719 5719 5718 5717 5717 5717 5717 5716 5716 5716 5718 5721 5719 5722 5726 5725 5727 5729 5731 5732
5673 5678 5682 5686 5689 5691 5699 5699 5700 5701 5702 5704 5706 5703 5712 5713 5712 5712 5713 5715 5716 5717 5717 5717 5718 5718 5719 5717 5715 5715 5715 5715 5715 5716 5718 5719 5720 5720 5724 5724 5725 5727 5729 5729
5664 5672 5676 5682 5685 5689 5691 5693 5695 5697 5696 5700 5700 5696 5706 5708 5709 5707 5710 5711 5713 5715 5716 5716 5715 5716 5716 5716 5715 5714 5712 5712 5712 5713 5714 5714 5714 5715 5718 5721 5722 5724 5723 5726
5656 5662 5668 5673 5678 5681 5682 5683 5693 5689 5690 5691 5694 5695 5700 5703 5706 5705 5706 5709 5710 5711 5714 5714 5713 5713 5714 5714 5713 5712 5711 5711 5711 5710 5712 5713 5714 5716 5718 5718 5718 5720 5723 5723
5649 5655 5661 5665 5668 5670 5672 5679 5681 5680 5682 5683 5686 5691 5696 5696 5700 5702 5702 5706 5707 5707 5710 5711 5711 5710 5710 5710 5710 5710 5708 5708 5708 5709 5710 5711 5712 5713 5714 5716 5717 5718 5717 5716
5640 5645 5654 5656 5659 5664 5668 5670 5674 5677 5675 5675 5679 5687 5692 5691 5691 5698 5698 5701 5703 5704 5705 5706 5707 5707 5707 5706 5706 5706 5707 5707 5707 5706 5705 5706 5708 5708 5709 5709 5709 5710 5710 5711
5633 5637 5644 5649 5652 5657 5660 5662 5664 5666 5669 5672 5674 5678 5686 5688 5688 5690 5696 5696 5699 5701 5701 5701 5701 5703 5703 5703 5701 5702 5702 5703 5703 5701 5702 5701 5702 5703 5703 5703 5702 5702 5703 5703
5626 5630 5636 5643 5647 5647 5650 5654 5658 5660 5662 5663 5667 5670 5683 5684 5685 5686 5687 5689 5692 5695 5696 5696 5697 5698 5698 5699 5698 5697 5697 5698 5698 5697 5696 5696 5695 5695 5696 5697 5696 5695 5696 5695
5618 5622 5627 5635 5639 5641 5644 5648 5649 5653 5654 5656 5659 5663 5673 5676 5679 5680 5682 5682 5683 5685 5688 5689 5690 5691 5692 5693 5693 5692 5691 5690 5691 5692 5692 5691 5690 5690 5690 5688 5687 5687 5687 5687
5607 5612 5617 5621 5629 5635 5638 5639 5642 5644 5646 5647 5652 5654 5662 5666 5667 5670 5673 5674 5676 5677 5677 5679 5683 5683 5683 5684 5685 5685 5683 5683 5684 5684 5686 5686 5685 5683 5682 5682 5680 5679 5679 5678
5597 5603 5607 5611 5617 5625 5628 5631 5632 5636 5638 5640 5642 5645 5651 5657 5660 5660 5664 5665 5667 5670 5670 5670 5671 5673 5675 5678 5678 5676 5675 5676 5676 5676 5677 5677 5676 5675 5674 5673 5672 5671 5670 5668
5592 5594 5601 5604 5608 5613 5621 5622 5623 5628 5630 5631 5633 5637 5641 5645 5648 5653 5654 5655 5657 5660 5662 5662 5662 5664 5665 5668 5669 5668 5667 5667 5667 5668 5669 5669 5668 5666 5665 5664 5662 5662 5661 5658
5585 5588 5592 5596 5602 5603 5611 5610 5616 5619 5622 5625 5625 5627 5630 5632 5638 5643 5645 5647 5649 5650 5652 5654 5653 5654 5656 5657 5659 5659 5659 5659 5658 5659 5659 5658 5658 5656 5655 5653 5651 5651 5650 5649
5577 5581 5583 5587 5590 5596 5603 5607 5607 5606 5613 5611 5614 5617 5619 5622 5624 5634 5639 5638 5638 5639 5641 5644 5646 5647 5647 5648 5650 5650 5650 5648 5647 5647 5646 5646 5646 5645 5644 5642 5640 5639 5638 5637
5570 5574 5577 5581 5581 5585 5597 5595 5596 5596 5601 5602 5601 5606 5609 5613 5615 5618 5628 5626 5628 5631 5633 5635 5637 5638 5639 5640 5639 5639 5640 5639 5637 5638 5635 5633 5634 5635 5634 5633 5631 5629 5627 5626
5565 5568 5571 5572 5571 5579 5585 5584 5584 5586 5592 5589 5593 5594 5598 5603 5606 5606 5611 5616 5617 5620 5622 5624 5626 5627 5628 5628 5629 5627 5628 5628 5628 5627 5624 5622 5621 5623 5623 5622 5621 5619 5617 5615
5559 5561 5564 5565 5568 5574 5573 5571 5571 5570 5574 5578 5581 5585 5587 5591 5595 5597 5598 5603 5606 5607 5609 5612 5613 5614 5616 5616 5616 5617 5616 5616 5616 5615 5614 5612 5612 5612 5611 5610 5609 5607 5604 5602
5552 5555 5557 5562 5566 5565 5563 5562 5561 5561 5565 5568 5573 5576 5576 5580 5583 5587 5590 5591 5594 5597 5598 5599 5600 5602 5602 5604 5604 5604 5604 5604 5603 5602 5601 5600 5599 5598 5597 5596 5594 5593 5592 5589
5544 5546 5550 5554 5558 5557 5557 5556 5556 5556 5555 5559 5567 5566 5565 5568 5571 5574 5578 5582 5583 5584 5586 5587 5588 5589 5589 5591 5593 5593 5593 5593 5591 5590 5589 5588 5587 5585 5583 5581 5579 5577 5575 5574
5537 5540 5544 5548 5548 5550 5549 5548 5551 5550 5550 5550 5553 5552 5555 5558 5559 5563 5565 5569 5571 5573 5574 5576 5576 5575 5577 5578 5580 5581 5580 5579 5578 5577 5576 5574 5572 5571 5569 5567 5565 5562 5559 5557
5529 5532 5535 5537 5539 5541 5541 5541 5542 5544 5541 5542 5542 5543 5545 5549 5547 5549 5555 5557 5558 5560 5562 5564 5565 5566 5566 5567 5568 5568 5568 5567 5565 5564 5563 5561 5559 5557 5555 5552 5550 5546 5543 5540